SCP
0 0 0 0 0 0 0 0 0 0 0 0 0 0 0 0 0 0 0 0 0 0
0 0 0 0 0 0 0 0 0 0 0 0 0 0 0 0 0 0 0 0 0 0
0 0 0 0 0 0 0 0 0 0 0 0 0 0 0 0 0 0 0 0 0 0
0 0 0 0 0 0 0 0 0 0 0 0 0 0 0 0 0 0 0 0 0 0
0 0 0 0 0 0 0 0 0 0 0 0 0 0 0 0 0 0 0 0 0 0
0 0 0 0 0 0 0 0 0 0 0 0 0 0 0 0 0 0 0 0 0 0
0 0 0 0 0 0 0 0 0 0 0 0 0 0 0 0 0 0 0 0 0 0
0 0 0 0 0 0 0 0 0 0 0 0 0 0 0 0 0 0 0 0 0 0
0 0 0 0 0 0 0 0 0 0 0 0 0 0 0 0 0 0 0 0 0 0
0 0 0 0 0 0 0 0 0 0 0 0 0 0 0 0 0 0 0 0 0 0
0 0 0 0 0 0 0 0 0 0 0 0 0 0 0 0 0 0 0 0 0 0
0 0 0 0 0 0 0 0 0 0 0 0 0 0 0 0 0 0 0 0 0 0
0 0 0 0 0 0 0 0 0 0 0 0 0 0 0 0 0 0 0 0 0 0
0 0 0 0 0 0 0 0 0 0 0 0 0 0 0 0 0 0 0 0 0 0
Wind_Speed_500mb
17 16 12 5 8 5 4 11 20 22 24 30 34 35 38 41 42 34 33 42 31 31
15 10 2 11 5 6 14 18 21 18 20 24 30 28 30 38 31 41 44 46 46 35
13 11 4 7 13 15 17 22 28 30 30 32 35 37 36 40 37 30 38 44 50 40
2 2 4 12 10 14 23 32 36 36 36 37 39 36 37 38 31 38 48 45 44 38
14 19 18 18 20 24 31 38 41 42 37 39 36 34 34 35 45 44 47 45 44 43
29 29 26 24 24 27 33 29 30 34 35 34 34 37 39 37 34 38 48 51 42 39
32 24 22 18 20 20 27 31 32 33 34 36 37 40 36 34 37 44 46 40 35 32
21 15 9 14 25 25 24 26 36 44 48 42 40 41 38 39 38 46 43 33 36 34
4 13 15 17 19 18 27 37 42 47 38 38 35 33 35 37 37 45 33 33 33 35
7 5 12 15 22 25 33 36 33 35 34 32 34 37 35 36 36 32 29 35 41 44
8 7 16 19 30 39 35 29 29 28 27 30 35 36 36 35 33 32 35 38 36 33
4 9 17 29 25 27 29 25 25 22 28 29 28 29 34 37 40 43 42 38 20 25
10 16 23 24 19 19 19 21 26 28 27 25 31 38 39 45 41 44 42 35 24 27
14 11 13 19 13 19 19 24 16 23 19 25 40 39 39 39 39 45 35 28 28 26
Wind_Direction_500mb
126 136 150 158 153 149 296 336 346 357 7 3 356 348 343 345 354 343 344 345 331 334
158 188 176 134 105 317 338 353 350 352 348 340 320 318 317 318 334 327 333 335 336 318
176 203 302 357 353 355 342 325 327 327 319 315 310 305 303 307 316 317 320 315 322 307
286 105 298 309 298 309 315 310 310 315 316 314 314 307 306 305 314 316 315 317 326 303
214 209 236 260 283 288 299 307 307 309 309 311 307 311 311 310 314 312 313 320 330 309
192 208 225 253 274 296 309 317 323 321 319 317 320 320 322 326 321 320 320 319 319 312
204 216 241 263 298 321 334 331 345 348 346 338 335 332 329 323 329 323 329 328 325 320
196 226 272 332 346 337 347 342 335 333 328 323 326 324 322 323 332 327 329 326 328 325
359 9 4 339 334 336 325 326 329 325 332 334 335 338 331 330 334 329 334 332 326 331
68 313 326 323 322 327 332 332 333 326 333 335 335 329 332 336 336 334 336 323 320 320
255 299 309 310 324 328 339 338 336 336 336 332 333 335 340 343 347 341 333 328 322 330
226 294 305 327 327 333 342 345 354 349 341 337 345 338 336 339 345 338 330 334 338 336
293 319 330 335 347 5 16 33 15 9 358 351 352 344 345 343 341 336 337 345 348 339
337 9 347 355 51 38 26 350 353 24 18 351 344 344 349 342 341 341 348 358 354 350
Wind_Speed_850mb
17 16 12 5 8 5 4 11 20 22 24 30 34 35 38 41 42 34 33 42 31 31
15 10 2 11 5 6 14 18 21 18 20 24 30 28 30 38 31 41 44 46 46 35
13 11 4 7 13 15 17 22 28 30 30 32 35 37 36 40 37 30 38 44 50 40
2 2 4 12 10 14 23 32 36 36 36 37 39 36 37 38 31 38 48 45 44 38
14 19 18 18 20 24 31 38 41 42 37 39 36 34 34 35 45 44 47 45 44 43
29 29 26 24 24 27 33 29 30 34 35 34 34 37 39 37 34 38 48 51 42 39
32 24 22 18 20 20 27 31 32 33 34 36 37 40 36 34 37 44 46 40 35 32
21 15 9 14 25 25 24 26 36 44 48 42 40 41 38 39 38 46 43 33 36 34
4 13 15 17 19 18 27 37 42 47 38 38 35 33 35 37 37 45 33 33 33 35
7 5 12 15 22 25 33 36 33 35 34 32 34 37 35 36 36 32 29 35 41 44
8 7 16 19 30 39 35 29 29 28 27 30 35 36 36 35 33 32 35 38 36 33
4 9 17 29 25 27 29 25 25 22 28 29 28 29 34 37 40 43 42 38 20 25
10 16 23 24 19 19 19 21 26 28 27 25 31 38 39 45 41 44 42 35 24 27
14 11 13 19 13 19 19 24 16 23 19 25 40 39 39 39 39 45 35 28 28 26
Wind_Direction_850mb
126 136 150 158 153 149 296 336 346 357 7 3 356 348 343 345 354 343 344 345 331 334
158 188 176 134 105 317 338 353 350 352 348 340 320 318 317 318 334 327 333 335 336 318
176 203 302 357 353 355 342 325 327 327 319 315 310 305 303 307 316 317 320 315 322 307
286 105 298 309 298 309 315 310 310 315 316 314 314 307 306 305 314 316 315 317 326 303
214 209 236 260 283 288 299 307 307 309 309 311 307 311 311 310 314 312 313 320 330 309
192 208 225 253 274 296 309 317 323 321 319 317 320 320 322 326 321 320 320 319 319 312
204 216 241 263 298 321 334 331 345 348 346 338 335 332 329 323 329 323 329 328 325 320
196 226 272 332 346 337 347 342 335 333 328 323 326 324 322 323 332 327 329 326 328 325
359 9 4 339 334 336 325 326 329 325 332 334 335 338 331 330 334 329 334 332 326 331
68 313 326 323 322 327 332 332 333 326 333 335 335 329 332 336 336 334 336 323 320 320
255 299 309 310 324 328 339 338 336 336 336 332 333 335 340 343 347 341 333 328 322 330
226 294 305 327 327 333 342 345 354 349 341 337 345 338 336 339 345 338 330 334 338 336
293 319 330 335 347 5 16 33 15 9 358 351 352 344 345 343 341 336 337 345 348 339
337 9 347 355 51 38 26 350 353 24 18 351 344 344 349 342 341 341 348 358 354 350